Simultaneous Nadir Overpasses (SNOs) Predictions

Prediction of SNOs between AQUA and GOES-15 Satellite Orbit:

Table of predicted SNOs for the next 14.0 days since TLE Epoch: 6/2/2017
Index Date Time (AQUA) AQUA Lat,Lon GOES-15 Lat,Lon Distance(km) Time Diff (sec)
1 06/02/2017 22:34:59 0.04,-134.89 -0.01,-135.06 19.62 80
2 06/04/2017 22:22:47 0.67,-131.94 -0.01,-135.13 363.00 80
3 06/05/2017 10:44:02 0.43,-137.09 -0.00,-135.12 224.82 80
4 06/07/2017 10:31:50 -0.20,-134.13 -0.00,-135.17 117.98 80
5 06/07/2017 22:53:15 -0.87,-139.33 0.02,-135.22 468.42 80
6 06/09/2017 10:19:38 -0.83,-131.18 -0.00,-135.23 460.11 80
7 06/09/2017 22:41:03 -0.23,-136.38 0.02,-135.27 126.41 80
8 06/11/2017 22:28:51 0.41,-133.42 0.02,-135.31 215.02 80
9 06/12/2017 10:50:06 0.68,-138.58 -0.04,-135.30 373.10 80
10 06/14/2017 10:37:54 0.04,-135.62 -0.03,-135.34 32.32 80
11 06/16/2017 10:25:42 -0.61,-132.66 -0.03,-135.37 307.93 80




NCC Satellite Simultaneous Nadir Overpasses (SNOs) Prediction Service
